When you browse on this site, cookies collect data to enhance your experience and personalize the content and advertising you see.
Visit our Privacy Policy to learn more. By continuing to use the site, you agree to this use of cookies and data.
  • In Sweden
  • List of Countries
  • For 7 days
  • Water Temperature
  • Satellite Maps
  • Weather Map
  • Weather Widgets
  • user-avatar
    Login

    Hourly Weather Nieborow

    Today, 23 April, Tuesday

    Time Temperature Precipitation Wind Pressure Humidity
    00:00 +8°C° 0 mm 6 mps 758 mmHg 56%
    01:00 +8°C° 0 mm 6 mps 758 mmHg 57%
    02:00 +8°C° 0 mm 6 mps 758 mmHg 56%
    03:00 +8°C° 0 mm 6 mps 757 mmHg 55%
    04:00 +8°C° 0 mm 7 mps 757 mmHg 54%
    05:00 +7°C° 0 mm 8 mps 757 mmHg 53%
    06:00 +8°C° 0 mm 9 mps 757 mmHg 51%
    07:00 +9°C° 0 mm 10 mps 757 mmHg 49%
    08:00 +11°C° 0 mm 10 mps 757 mmHg 47%
    09:00 +13°C° 0 mm 11 mps 757 mmHg 44%
    10:00 +14°C° 0 mm 11 mps 756 mmHg 42%
    11:00 +16°C° 0 mm 11 mps 756 mmHg 41%
    12:00 +16°C° 0 mm 11 mps 756 mmHg 41%
    13:00 +17°C° 0 mm 11 mps 755 mmHg 41%
    14:00 +17°C° 0 mm 11 mps 755 mmHg 42%
    15:00 +17°C° 0 mm 10 mps 755 mmHg 43%
    16:00 +17°C° 0 mm 10 mps 754 mmHg 44%
    17:00 +16°C° 0 mm 9 mps 754 mmHg 46%
    18:00 +15°C° 0 mm 8 mps 754 mmHg 48%
    19:00 +12°C° 0 mm 7 mps 754 mmHg 50%
    20:00 +12°C° 0 mm 8 mps 754 mmHg 51%
    21:00 +12°C° 0 mm 8 mps 755 mmHg 51%
    22:00 +11°C° 0 mm 8 mps 755 mmHg 51%
    23:00 +11°C° 0 mm 8 mps 754 mmHg 53%

    Tomorrow, 24 April, Wednesday

    Time Temperature Precipitation Wind Pressure Humidity
    00:00 +10°C° 0 mm 8 mps 754 mmHg 54%
    01:00 +10°C° 0 mm 7 mps 754 mmHg 55%
    02:00 +10°C° 0 mm 8 mps 754 mmHg 55%
    03:00 +10°C° 0 mm 8 mps 754 mmHg 55%
    04:00 +9°C° 0 mm 8 mps 754 mmHg 55%
    05:00 +10°C° 0 mm 8 mps 754 mmHg 57%
    06:00 +10°C° 0 mm 8 mps 754 mmHg 58%
    07:00 +11°C° 0 mm 9 mps 754 mmHg 60%
    08:00 +12°C° 0 mm 9 mps 754 mmHg 59%
    09:00 +13°C° 0 mm 9 mps 754 mmHg 58%
    10:00 +15°C° 0 mm 9 mps 754 mmHg 56%
    11:00 +17°C° 0 mm 9 mps 754 mmHg 55%
    12:00 +18°C° 0 mm 9 mps 754 mmHg 54%
    13:00 +19°C° 0 mm 9 mps 753 mmHg 52%
    14:00 +19°C° 0 mm 9 mps 753 mmHg 54%
    15:00 +20°C° 0 mm 8 mps 753 mmHg 56%
    16:00 +18°C° 0 mm 8 mps 753 mmHg 58%
    17:00 +17°C° 0 mm 7 mps 753 mmHg 62%
    18:00 +16°C° 0 mm 6 mps 753 mmHg 65%
    19:00 +15°C° 0 mm 6 mps 753 mmHg 69%
    20:00 +14°C° 0 mm 6 mps 753 mmHg 72%
    21:00 +14°C° 0 mm 6 mps 753 mmHg 75%
    22:00 +13°C° 0 mm 6 mps 753 mmHg 78%
    23:00 +13°C° 0 mm 6 mps 753 mmHg 80%

    Day after tomorrow, 25 April, Thursday

    Time Temperature Precipitation Wind Pressure Humidity
    00:00 +13°C° 0 mm 5 mps 753 mmHg 81%
    01:00 +13°C° 0 mm 5 mps 753 mmHg 82%
    02:00 +13°C° 0 mm 5 mps 753 mmHg 83%
    03:00 +13°C° 0 mm 5 mps 753 mmHg 84%
    04:00 +12°C° 0 mm 5 mps 753 mmHg 84%
    05:00 +14°C° 0 mm 5 mps 753 mmHg 81%
    06:00 +15°C° 0 mm 5 mps 753 mmHg 77%
    07:00 +16°C° 0 mm 5 mps 753 mmHg 74%
    08:00 +19°C° 0 mm 5 mps 753 mmHg 68%
    09:00 +20°C° 0 mm 4 mps 753 mmHg 62%
    10:00 +22°C° 0 mm 4 mps 753 mmHg 57%
    11:00 +23°C° 0 mm 4 mps 753 mmHg 54%
    12:00 +25°C° 0 mm 4 mps 753 mmHg 51%
    13:00 +26°C° 0 mm 4 mps 753 mmHg 48%
    14:00 +25°C° 0 mm 3 mps 753 mmHg 51%
    15:00 +24°C° 0 mm 3 mps 753 mmHg 54%
    16:00 +24°C° 0 mm 2 mps 753 mmHg 57%
    17:00 +21°C° 0 mm 2 mps 753 mmHg 61%
    18:00 +20°C° 0 mm 2 mps 753 mmHg 65%
    19:00 +18°C° 0 mm 2 mps 752 mmHg 69%
    20:00 +18°C° 0 mm 2 mps 753 mmHg 71%
    21:00 +17°C° 0 mm 2 mps 753 mmHg 72%
    22:00 +16°C° 0 mm 2 mps 753 mmHg 74%
    23:00 +16°C° 0 mm 2 mps 753 mmHg 74%

    26 April, Friday

    Time Temperature Precipitation Wind Pressure Humidity
    00:00 +16°C° 0 mm 2 mps 753 mmHg 75%
    01:00 +15°C° 0 mm 2 mps 752 mmHg 76%
    02:00 +15°C° 0 mm 2 mps 752 mmHg 79%
    03:00 +14°C° 0 mm 2 mps 752 mmHg 82%
    04:00 +13°C° 0 mm 3 mps 752 mmHg 85%
    05:00 +14°C° 0 mm 3 mps 751 mmHg 81%
    06:00 +17°C° 0 mm 3 mps 751 mmHg 76%
    07:00 +18°C° 0 mm 3 mps 751 mmHg 71%
    08:00 +20°C° 0 mm 4 mps 750 mmHg 65%
    09:00 +22°C° 0 mm 4 mps 750 mmHg 59%
    10:00 +25°C° 0 mm 4 mps 750 mmHg 53%
    11:00 +26°C° 0 mm 4 mps 749 mmHg 49%
    12:00 +27°C° 0 mm 4 mps 749 mmHg 45%
    13:00 +28°C° 0 mm 4 mps 748 mmHg 42%
    14:00 +28°C° 0 mm 4 mps 748 mmHg 42%
    15:00 +28°C° 0 mm 3 mps 748 mmHg 43%
    16:00 +27°C° 0 mm 3 mps 748 mmHg 44%
    17:00 +26°C° 0 mm 3 mps 748 mmHg 49%
    18:00 +24°C° 0 mm 2 mps 747 mmHg 55%
    19:00 +21°C° 0 mm 2 mps 747 mmHg 61%
    20:00 +20°C° 0.2 mm 2 mps 747 mmHg 64%
    21:00 +19°C° 0.2 mm 2 mps 747 mmHg 68%
    22:00 +19°C° 0.2 mm 2 mps 747 mmHg 71%
    23:00 +18°C° 0.4 mm 2 mps 747 mmHg 74%

    27 April, Saturday

    Time Temperature Precipitation Wind Pressure Humidity
    00:00 +18°C° 0.4 mm 3 mps 747 mmHg 77%
    01:00 +17°C° 0.4 mm 3 mps 747 mmHg 80%
    02:00 +16°C° 0.4 mm 3 mps 747 mmHg 83%
    03:00 +16°C° 0.4 mm 3 mps 747 mmHg 86%
    04:00 +14°C° 0.4 mm 3 mps 747 mmHg 90%
    05:00 +15°C° 0.2 mm 4 mps 747 mmHg 89%
    06:00 +17°C° 0.2 mm 4 mps 747 mmHg 89%
    07:00 +17°C° 0.2 mm 5 mps 747 mmHg 88%
    08:00 +18°C° 0 mm 4 mps 747 mmHg 87%
    09:00 +18°C° 0 mm 4 mps 747 mmHg 86%
    10:00 +18°C° 0 mm 4 mps 748 mmHg 84%
    11:00 +17°C° 0.1 mm 4 mps 748 mmHg 84%
    12:00 +16°C° 0.1 mm 5 mps 748 mmHg 83%
    13:00 +15°C° 0.1 mm 6 mps 749 mmHg 82%
    14:00 +14°C° 0.1 mm 6 mps 749 mmHg 82%
    15:00 +13°C° 0.1 mm 6 mps 749 mmHg 81%
    16:00 +11°C° 0.1 mm 6 mps 749 mmHg 81%
    17:00 +10°C° 0 mm 6 mps 750 mmHg 80%
    18:00 +10°C° 0 mm 6 mps 750 mmHg 79%
    19:00 +9°C° 0 mm 5 mps 750 mmHg 78%
    20:00 +9°C° 0 mm 5 mps 751 mmHg 80%
    21:00 +8°C° 0 mm 4 mps 751 mmHg 82%
    22:00 +8°C° 0 mm 4 mps 751 mmHg 84%
    23:00 +8°C° 0 mm 4 mps 751 mmHg 86%

    28 April, Sunday

    Time Temperature Precipitation Wind Pressure Humidity
    00:00 +8°C° 0 mm 4 mps 752 mmHg 88%
    01:00 +8°C° 0 mm 4 mps 752 mmHg 90%
    02:00 +9°C° 0 mm 3 mps 752 mmHg 92%
    03:00 +8°C° 0 mm 3 mps 752 mmHg 94%
    04:00 +8°C° 0 mm 3 mps 752 mmHg 96%
    05:00 +9°C° 0 mm 3 mps 752 mmHg 92%
    06:00 +10°C° 0 mm 3 mps 752 mmHg 88%
    07:00 +11°C° 0 mm 4 mps 753 mmHg 84%
    08:00 +12°C° 0.1 mm 4 mps 753 mmHg 78%
    09:00 +13°C° 0.1 mm 3 mps 753 mmHg 73%
    10:00 +14°C° 0.1 mm 3 mps 753 mmHg 67%
    11:00 +16°C° 0.1 mm 3 mps 753 mmHg 62%
    12:00 +17°C° 0.1 mm 3 mps 753 mmHg 58%
    13:00 +18°C° 0.1 mm 3 mps 753 mmHg 53%
    14:00 +18°C° 0 mm 3 mps 753 mmHg 53%
    15:00 +18°C° 0 mm 3 mps 753 mmHg 52%
    16:00 +18°C° 0 mm 3 mps 753 mmHg 52%
    17:00 +17°C° 0 mm 2 mps 753 mmHg 58%
    18:00 +15°C° 0 mm 2 mps 753 mmHg 65%
    19:00 +14°C° 0 mm 2 mps 754 mmHg 71%
    20:00 +13°C° 0 mm 2 mps 754 mmHg 75%
    21:00 +12°C° 0 mm 2 mps 754 mmHg 79%
    22:00 +10°C° 0 mm 2 mps 755 mmHg 82%
    23:00 +10°C° 0 mm 2 mps 755 mmHg 84%
    Show more